Weather in Parga

Greece     39°17′12″N   20°24′00″E
temp.,
°C
wind,
m/s
gust,
m/s
humid.,
%
clouds,
%
prec.,
mm/h
press.,
hPa
HPBL,
m
24 may, tue
tue2400:00+19ese22775 0.0 101214
03:00+18ese11805 0.0 101229
06:00+17e11802 0.0 101233
09:00+21s11644 0.0 1012214
12:00+23sw22580 0.0 1012429
15:00+24sw32570 0.0 1012415
18:00+23sw22560 0.0 1012304
21:00+20s11700 0.0 101311
25 may, wed
wed2500:00+19e11670 0.0 101511
03:00+19ene21640 0.0 101413
06:00+19ne11612 0.0 101411
09:00+23wsw005137 0.0 1016144
12:00+24wsw21454 0.0 1017411
15:00+25wsw22440 0.0 1017401
18:00+25w23490 0.0 1017301
21:00+20sw01640 0.0 101711
26 may, thu
thu2600:00+20ne225837 0.0 101911
03:00+20nne11585 0.0 101911
06:00+19ne215743 0.0 101811
09:00+23w114922 0.0 1019149
12:00+26w334020 0.0 1020471
15:00+27w45405 0.0 1019521
18:00+26wnw3442100 0.0 1019301
21:00+22nnw1153100 0.0 101813
27 may, fri
fri2700:00+20e115810 0.0 101911
03:00+20ene115449 0.0 101811
06:00+20ne11535 0.0 101711
09:00+24wsw00485 0.0 1017130
12:00+25wsw22435 0.0 1017446
15:00+27w44425 0.0 1016485
18:00+26w34455 0.0 1015342
21:00+21w11597 0.0 101512
28 may, sat
sat2800:00+20ene22595 0.0 101511
03:00+20ne11555 0.0 101311
06:00+20n115633 0.0 101211
09:00+23w2249100 0.0 1013141
12:00+25w22430 0.0 1012431
15:00+27wsw22381 0.0 1011469
18:00+25w23425 0.0 1010264
21:00+21nne2259100 0.0 101022